| time (UTC) | temp F | wind direction | speed MPH | gust MPH | rain 1hr in | rain 24hr in | rain mn in | humidity % | barometer mb |
| 20260903124416 | 0 | 0.0 | 0.0 | 0.00 | 0.02 | 0.02 | |||
| 20260903123416 | 0 | 0.0 | 0.0 | 0.00 | 0.02 | 0.02 | |||
| 20260903122416 | 0 | 0.0 | 0.0 | 0.00 | 0.02 | 0.02 | |||
| 20260903121436 | 0 | 0.0 | 0.0 | 0.00 | 0.02 | 0.02 | |||
| 20260903120416 | 0 | 0.0 | 0.0 | 0.00 | 0.02 | 0.02 | |||
| 20260903115416 | 0 | 0.0 | 0.0 | 0.00 | 0.02 | 0.02 | |||
| 20260903114436 | 0 | 0.0 | 0.0 | 0.00 | 0.02 | 0.02 | |||
| 20260903113456 | 0 | 0.0 | 0.0 | 0.00 | 0.02 | 0.02 | |||
| 20260903112416 | 0 | 0.0 | 0.0 | 0.00 | 0.02 | 0.02 | |||
| 20260903111416 | 0 | 0.0 | 0.0 | 0.00 | 0.02 | 0.02 | |||
| 20260903110416 | 0 | 0.0 | 0.0 | 0.00 | 0.02 | 0.02 | |||
| 20260903105436 | 60 | 154 | 5.0 | 0.0 | 0.00 | 0.02 | 0.02 | 95 | 1015.2 |
| 20260903104416 | 60 | 158 | 5.0 | 8.0 | 0.00 | 0.02 | 0.02 | 95 | 1015.2 |
| 20260903103416 | 60 | 180 | 5.0 | 6.0 | 0.00 | 0.02 | 0.02 | 95 | 1015.2 |
| 20260903102416 | 60 | 158 | 5.0 | 7.0 | 0.00 | 0.02 | 0.02 | 95 | 1015.3 |
| 20260903101436 | 60 | 135 | 5.0 | 6.0 | 0.00 | 0.02 | 0.02 | 95 | 1015.3 |
| 20260903100416 | 60 | 135 | 4.0 | 5.0 | 0.00 | 0.02 | 0.02 | 95 | 1015.2 |
| 20260903095416 | 60 | 135 | 6.0 | 9.0 | 0.00 | 0.02 | 0.02 | 95 | 1015.4 |
| 20260903094416 | 60 | 158 | 4.0 | 6.0 | 0.00 | 0.02 | 0.02 | 95 | 1015.3 |
| 20260903093416 | 60 | 158 | 4.0 | 6.0 | 0.00 | 0.02 | 0.02 | 95 | 1015.2 |
| 20260903092416 | 60 | 158 | 5.0 | 6.0 | 0.00 | 0.02 | 0.02 | 95 | 1015.3 |
| 20260903091416 | 60 | 135 | 7.0 | 8.0 | 0.00 | 0.02 | 0.02 | 95 | 1015.4 |
| 20260903090416 | 60 | 158 | 3.0 | 6.0 | 0.00 | 0.02 | 0.02 | 93 | 1015.7 |
| 20260903085416 | 61 | 158 | 6.0 | 7.0 | 0.00 | 0.02 | 0.02 | 94 | 1015.6 |
| 20260903084416 | 61 | 180 | 3.0 | 5.0 | 0.00 | 0.02 | 0.02 | 94 | 1015.9 |
| 20260903083456 | 61 | 203 | 1.0 | 2.0 | 0.00 | 0.02 | 0.02 | 94 | 1016.0 |
| 20260903082436 | 61 | 158 | 5.0 | 6.0 | 0.00 | 0.02 | 0.02 | 94 | 1015.9 |
| 20260903081416 | 61 | 158 | 5.0 | 6.0 | 0.00 | 0.02 | 0.02 | 94 | 1015.8 |
| 20260903080416 | 61 | 158 | 7.0 | 8.0 | 0.00 | 0.02 | 0.02 | 94 | 1016.0 |
| 20260903075416 | 61 | 158 | 5.0 | 8.0 | 0.00 | 0.02 | 0.02 | 94 | 1016.1 |
| 20260903074416 | 61 | 180 | 5.0 | 10.0 | 0.00 | 0.02 | 0.02 | 94 | 1016.1 |
| 20260903073416 | 61 | 158 | 8.0 | 10.0 | 0.00 | 0.02 | 0.02 | 94 | 1016.2 |
| 20260903072416 | 61 | 158 | 6.0 | 9.0 | 0.00 | 0.02 | 0.02 | 93 | 1016.4 |
| 20260903071416 | 61 | 158 | 6.0 | 7.0 | 0.01 | 0.02 | 0.02 | 92 | 1016.3 |
| 20260903070416 | 61 | 158 | 7.0 | 10.0 | 0.02 | 0.03 | 0.02 | 92 | 1016.4 |
| 20260903065416 | 61 | 158 | 7.0 | 8.0 | 0.02 | 0.03 | 0.02 | 93 | 1016.2 |
| 20260903064416 | 61 | 158 | 8.0 | 9.0 | 0.02 | 0.03 | 0.02 | 93 | 1016.3 |
| 20260903063416 | 61 | 158 | 6.0 | 7.0 | 0.02 | 0.03 | 0.02 | 93 | 1016.4 |
| 20260903062416 | 61 | 158 | 7.0 | 10.0 | 0.02 | 0.03 | 0.02 | 92 | 1016.5 |
| 20260903061456 | 62 | 158 | 9.0 | 10.0 | 0.01 | 0.02 | 0.01 | 92 | 1016.6 |
| 20260903060416 | 62 | 158 | 9.0 | 11.0 | 0.00 | 0.01 | 0.00 | 92 | 1016.8 |
| 20260903055416 | 62 | 158 | 4.0 | 6.0 | 0.00 | 0.01 | 0.00 | 91 | 1017.2 |
| 20260903054416 | 62 | 158 | 7.0 | 9.0 | 0.00 | 0.01 | 0.00 | 91 | 1017.3 |
| 20260903053416 | 62 | 158 | 10.0 | 11.0 | 0.00 | 0.01 | 0.00 | 91 | 1017.5 |
| 20260903052416 | 62 | 180 | 9.0 | 11.0 | 0.00 | 0.01 | 0.00 | 91 | 1017.6 |
| 20260903051416 | 62 | 158 | 8.0 | 10.0 | 0.00 | 0.01 | 0.00 | 91 | 1017.8 |
| 20260903050416 | 62 | 158 | 8.0 | 11.0 | 0.00 | 0.01 | 0.00 | 90 | 1017.8 |
| 20260903045416 | 62 | 158 | 10.0 | 12.0 | 0.00 | 0.01 | 0.00 | 90 | 1017.9 |
| 20260903044416 | 62 | 158 | 7.0 | 10.0 | 0.00 | 0.01 | 0.00 | 91 | 1017.8 |
| 20260903043416 | 62 | 158 | 8.0 | 12.0 | 0.00 | 0.01 | 0.00 | 90 | 1017.7 |
| 20260903042416 | 62 | 158 | 10.0 | 12.0 | 0.00 | 0.01 | 0.00 | 91 | 1017.7 |
| 20260903041416 | 62 | 158 | 9.0 | 12.0 | 0.00 | 0.01 | 0.00 | 89 | 1017.8 |
| 20260903040416 | 63 | 158 | 8.0 | 10.0 | 0.00 | 0.01 | 0.00 | 90 | 1017.9 |
| 20260903035417 | 63 | 158 | 8.0 | 10.0 | 0.00 | 0.01 | 0.01 | 88 | 1018.0 |
| 20260903034417 | 63 | 158 | 7.0 | 8.0 | 0.00 | 0.01 | 0.01 | 87 | 1018.1 |
| 20260903033416 | 63 | 158 | 7.0 | 9.0 | 0.00 | 0.02 | 0.01 | 88 | 1018.2 |
| 20260903032437 | 63 | 158 | 9.0 | 10.0 | 0.00 | 0.02 | 0.01 | 86 | 1018.6 |
| 20260903031437 | 63 | 158 | 4.0 | 6.0 | 0.00 | 0.02 | 0.01 | 86 | 1018.7 |
| 20260903030417 | 63 | 158 | 10.0 | 12.0 | 0.00 | 0.02 | 0.01 | 87 | 1018.9 |
| 20260903025417 | 63 | 158 | 7.0 | 8.0 | 0.00 | 0.02 | 0.01 | 87 | 1019.0 |
| 20260903024416 | 63 | 158 | 7.0 | 10.0 | 0.00 | 0.02 | 0.01 | 87 | 1018.8 |
| 20260903023417 | 64 | 158 | 9.0 | 11.0 | 0.00 | 0.02 | 0.01 | 87 | 1018.8 |
| 20260903022437 | 64 | 158 | 9.0 | 15.0 | 0.00 | 0.02 | 0.01 | 87 | 1018.7 |
| 20260903021417 | 64 | 158 | 7.0 | 8.0 | 0.00 | 0.02 | 0.01 | 88 | 1019.1 |
| 20260903020417 | 64 | 180 | 7.0 | 10.0 | 0.00 | 0.02 | 0.01 | 87 | 1019.1 |
| 20260903015417 | 64 | 180 | 6.0 | 9.0 | 0.00 | 0.02 | 0.01 | 87 | 1019.1 |
| 20260903014417 | 64 | 158 | 10.0 | 12.0 | 0.00 | 0.02 | 0.01 | 90 | 1019.4 |
| 20260903013417 | 64 | 158 | 9.0 | 11.0 | 0.00 | 0.02 | 0.01 | 89 | 1019.3 |
| 20260903012416 | 64 | 158 | 9.0 | 11.0 | 0.00 | 0.02 | 0.01 | 90 | 1019.1 |
| 20260903011417 | 64 | 180 | 8.0 | 10.0 | 0.00 | 0.02 | 0.01 | 89 | 1019.1 |
| 20260903010437 | 64 | 158 | 4.0 | 6.0 | 0.00 | 0.02 | 0.01 | 90 | 1019.1 |
| 20260903005417 | 64 | 158 | 8.0 | 10.0 | 0.00 | 0.02 | 0.01 | 88 | 1019.1 |
| 20260903004417 | 64 | 158 | 8.0 | 10.0 | 0.00 | 0.02 | 0.01 | 89 | 1018.9 |
| 20260903003437 | 64 | 180 | 6.0 | 8.0 | 0.00 | 0.02 | 0.01 | 88 | 1018.8 |
| 20260903002417 | 64 | 158 | 6.0 | 8.0 | 0.00 | 0.02 | 0.01 | 88 | 1018.8 |
| 20260903001417 | 64 | 158 | 7.0 | 11.0 | 0.00 | 0.02 | 0.01 | 88 | 1018.5 |
| 20260903000439 | 64 | 158 | 9.0 | 13.0 | 0.00 | 0.02 | 0.01 | 89 | 1018.7 |
| 20260902235417 | 65 | 158 | 9.0 | 12.0 | 0.00 | 0.02 | 0.01 | 88 | 1018.5 |
| 20260902234417 | 65 | 158 | 11.0 | 12.0 | 0.00 | 0.02 | 0.01 | 88 | 1018.7 |
| 20260902233417 | 65 | 158 | 11.0 | 13.0 | 0.00 | 0.02 | 0.01 | 88 | 1019.0 |
| 20260902232417 | 65 | 158 | 11.0 | 14.0 | 0.00 | 0.02 | 0.01 | 88 | 1019.3 |
| 20260902231417 | 65 | 158 | 10.0 | 11.0 | 0.00 | 0.02 | 0.01 | 90 | 1019.8 |
| 20260902230416 | 65 | 158 | 10.0 | 12.0 | 0.00 | 0.02 | 0.01 | 89 | 1019.8 |
| 20260902225417 | 65 | 158 | 9.0 | 10.0 | 0.00 | 0.02 | 0.01 | 90 | 1020.2 |
| 20260902224417 | 65 | 158 | 9.0 | 11.0 | 0.00 | 0.02 | 0.01 | 90 | 1020.2 |
| 20260902223416 | 65 | 158 | 9.0 | 10.0 | 0.00 | 0.02 | 0.01 | 89 | 1020.4 |
| 20260902222416 | 65 | 158 | 9.0 | 10.0 | 0.00 | 0.02 | 0.01 | 89 | 1020.5 |
| 20260902221416 | 65 | 158 | 8.0 | 10.0 | 0.00 | 0.02 | 0.01 | 89 | 1020.6 |
| 20260902220417 | 65 | 158 | 8.0 | 10.0 | 0.00 | 0.02 | 0.01 | 89 | 1020.4 |
| 20260902215417 | 65 | 158 | 7.0 | 9.0 | 0.00 | 0.02 | 0.01 | 89 | 1020.5 |
| 20260902214417 | 65 | 158 | 7.0 | 8.0 | 0.00 | 0.02 | 0.01 | 89 | 1020.5 |
| 20260902213417 | 65 | 158 | 7.0 | 8.0 | 0.00 | 0.02 | 0.01 | 88 | 1020.5 |
| 20260902212417 | 65 | 158 | 6.0 | 7.0 | 0.00 | 0.02 | 0.01 | 88 | 1020.4 |
| 20260902211457 | 65 | 135 | 6.0 | 7.0 | 0.00 | 0.02 | 0.01 | 88 | 1020.6 |
| 20260902210417 | 65 | 158 | 7.0 | 8.0 | 0.00 | 0.02 | 0.01 | 87 | 1020.6 |
| 20260902205417 | 66 | 158 | 7.0 | 8.0 | 0.00 | 0.02 | 0.01 | 88 | 1020.6 |
| 20260902204417 | 66 | 158 | 9.0 | 10.0 | 0.00 | 0.02 | 0.01 | 87 | 1020.6 |
| 20260902203417 | 66 | 158 | 8.0 | 10.0 | 0.00 | 0.02 | 0.01 | 86 | 1020.7 |
| 20260902202416 | 66 | 180 | 5.0 | 7.0 | 0.00 | 0.02 | 0.01 | 86 | 1020.7 |
| 20260902201416 | 66 | 158 | 6.0 | 7.0 | 0.00 | 0.02 | 0.01 | 86 | 1020.7 |
| 20260902200416 | 66 | 158 | 10.0 | 12.0 | 0.00 | 0.02 | 0.01 | 86 | 1020.7 |
| 20260902195417 | 66 | 158 | 10.0 | 13.0 | 0.00 | 0.02 | 0.01 | 85 | 1020.8 |
| 20260902194417 | 66 | 158 | 11.0 | 13.0 | 0.00 | 0.02 | 0.01 | 84 | 1020.9 |
| 20260902193416 | 66 | 158 | 10.0 | 12.0 | 0.00 | 0.02 | 0.01 | 86 | 1021.1 |
| 20260902192437 | 65 | 135 | 8.0 | 9.0 | 0.00 | 0.02 | 0.01 | 85 | 1021.0 |
| 20260902191416 | 65 | 158 | 9.0 | 10.0 | 0.00 | 0.02 | 0.01 | 86 | 1021.3 |
| 20260902190417 | 65 | 158 | 9.0 | 11.0 | 0.00 | 0.02 | 0.01 | 86 | 1021.4 |
| 20260902185416 | 65 | 158 | 8.0 | 11.0 | 0.00 | 0.02 | 0.01 | 85 | 1021.5 |
| 20260902184417 | 65 | 158 | 9.0 | 11.0 | 0.00 | 0.02 | 0.01 | 86 | 1021.7 |
| 20260902183456 | 65 | 158 | 9.0 | 11.0 | 0.00 | 0.02 | 0.01 | 85 | 1021.7 |
| 20260902182416 | 65 | 158 | 9.0 | 11.0 | 0.00 | 0.02 | 0.01 | 84 | 1021.6 |
| 20260902181436 | 65 | 158 | 9.0 | 11.0 | 0.00 | 0.02 | 0.01 | 85 | 1021.3 |
| 20260902180416 | 65 | 158 | 7.0 | 8.0 | 0.00 | 0.02 | 0.01 | 85 | 1021.4 |
| 20260902175417 | 65 | 158 | 7.0 | 9.0 | 0.00 | 0.02 | 0.01 | 86 | 1021.5 |
| 20260902174416 | 65 | 158 | 8.0 | 10.0 | 0.00 | 0.02 | 0.01 | 86 | 1021.4 |
| 20260902173416 | 65 | 158 | 7.0 | 8.0 | 0.00 | 0.02 | 0.01 | 86 | 1021.4 |
| 20260902172417 | 65 | 180 | 6.0 | 9.0 | 0.00 | 0.02 | 0.01 | 86 | 1021.8 |
| 20260902171416 | 65 | 180 | 4.0 | 9.0 | 0.00 | 0.02 | 0.01 | 86 | 1022.0 |
| 20260902170416 | 65 | 158 | 8.0 | 10.0 | 0.00 | 0.02 | 0.01 | 85 | 1021.9 |
| 20260902165416 | 64 | 158 | 12.0 | 14.0 | 0.00 | 0.02 | 0.01 | 87 | 1021.8 |
| 20260902164416 | 64 | 158 | 7.0 | 10.0 | 0.00 | 0.02 | 0.01 | 86 | 1021.8 |
| 20260902163416 | 64 | 158 | 11.0 | 15.0 | 0.00 | 0.02 | 0.01 | 86 | 1021.6 |
| 20260902162416 | 64 | 158 | 10.0 | 12.0 | 0.00 | 0.02 | 0.01 | 87 | 1021.9 |
| 20260902161437 | 64 | 158 | 10.0 | 12.0 | 0.00 | 0.02 | 0.01 | 85 | 1021.9 |
| 20260902160416 | 64 | 158 | 10.0 | 12.0 | 0.00 | 0.02 | 0.01 | 86 | 1022.1 |
| 20260902155416 | 65 | 158 | 10.0 | 11.0 | 0.00 | 0.02 | 0.01 | 85 | 1022.4 |
| 20260902154416 | 65 | 158 | 7.0 | 10.0 | 0.00 | 0.02 | 0.01 | 85 | 1022.4 |
| 20260902153416 | 64 | 158 | 10.0 | 13.0 | 0.00 | 0.02 | 0.01 | 84 | 1022.5 |
| 20260902152416 | 64 | 158 | 6.0 | 8.0 | 0.00 | 0.02 | 0.01 | 85 | 1022.6 |
| 20260902151416 | 64 | 180 | 5.0 | 8.0 | 0.00 | 0.02 | 0.01 | 85 | 1022.7 |
| 20260902150417 | 64 | 158 | 8.0 | 10.0 | 0.00 | 0.02 | 0.01 | 86 | 1022.7 |
| 20260902145436 | 64 | 158 | 8.0 | 10.0 | 0.00 | 0.02 | 0.01 | 86 | 1022.4 |
| 20260902144416 | 63 | 158 | 9.0 | 11.0 | 0.00 | 0.02 | 0.01 | 88 | 1022.4 |
| 20260902143417 | 63 | 158 | 10.0 | 11.0 | 0.00 | 0.02 | 0.01 | 88 | 1022.3 |
| 20260902142416 | 63 | 158 | 9.0 | 11.0 | 0.00 | 0.02 | 0.01 | 90 | 1022.5 |
| 20260902141416 | 63 | 158 | 9.0 | 12.0 | 0.00 | 0.02 | 0.01 | 90 | 1022.3 |
| 20260902140416 | 62 | 158 | 8.0 | 11.0 | 0.00 | 0.02 | 0.01 | 89 | 1022.2 |
| 20260902135416 | 62 | 158 | 8.0 | 10.0 | 0.00 | 0.02 | 0.01 | 89 | 1022.1 |
| 20260902134416 | 62 | 158 | 7.0 | 9.0 | 0.00 | 0.02 | 0.01 | 89 | 1021.9 |
| 20260902133416 | 62 | 180 | 7.0 | 9.0 | 0.00 | 0.03 | 0.01 | 90 | 1021.8 |
| 20260902132416 | 62 | 158 | 7.0 | 9.0 | 0.00 | 0.03 | 0.01 | 90 | 1021.9 |
| 20260902131416 | 61 | 135 | 7.0 | 12.0 | 0.00 | 0.03 | 0.01 | 91 | 1021.6 |
| 20260902130416 | 61 | 135 | 7.0 | 8.0 | 0.00 | 0.03 | 0.01 | 91 | 1021.7 |
| 20260902125416 | 61 | 158 | 8.0 | 11.0 | 0.00 | 0.04 | 0.01 | 91 | 1021.7 |